Location: Alafon
(8.4500°N, 4.2333°E)
Time: 08:35:46
(UTC+00:00)

Tiros 1 despin weight - All Passes

Search period start: 24 July 2021 00:00
Search period end: 03 August 2021 00:00
Orbit: 593 x 641 km, 48.2° (Epoch: 23 July)

Date Brightness Start Highest point End Pass type
(mag) Time Alt. Az. Time Alt. Az. Time Alt. Az.
24 Jul - 01:31:02 10° W 01:34:17 20° SW 01:37:31 10° S night (unlit)
24 Jul - 12:02:54 10° SSE 12:04:44 12° SE 12:06:33 10° ESE daylight
24 Jul - 13:41:31 10° SW 13:46:02 53° NW 13:50:36 10° NNE daylight
25 Jul - 00:04:44 10° NW 00:09:13 80° NE 00:13:38 10° SE night (unlit)
25 Jul - 12:16:48 10° S 12:20:54 31° SE 12:25:01 10° ENE daylight
25 Jul - 13:58:49 10° W 14:02:20 21° NW 14:05:53 10° N daylight
25 Jul - 22:40:58 10° N 22:43:56 17° NE 22:46:54 10° E night (unlit)
26 Jul - 00:21:18 10° WNW 00:25:24 35° SW 00:29:27 10° SSE night (unlit)
26 Jul - 12:32:27 10° SW 12:37:04 85° SE 12:41:45 10° NE daylight
26 Jul - 22:55:59 10° NNW 23:00:17 43° NE 23:04:31 10° ESE night (unlit)
27 Jul - 00:39:21 10° W 00:41:33 13° SW 00:43:45 10° SSW night (unlit)
27 Jul - 11:08:52 10° S 11:11:59 18° SE 11:15:07 10° E daylight
27 Jul - 12:49:05 10° WSW 12:53:19 35° NW 12:57:36 10° NNE daylight
27 Jul - 23:12:02 10° NW 23:16:29 67° SW 23:20:55 10° SSE night (unlit)
28 Jul - 11:23:44 10° SSW 11:28:09 46° SE 11:32:35 10° NE daylight
28 Jul - 13:07:03 10° W 13:09:41 15° NW 13:12:18 10° N daylight
28 Jul - 21:47:33 10° N 21:51:17 25° NE 21:54:59 10° ESE night (unlit)
28 Jul - 23:29:00 10° WNW 23:32:40 24° SW 23:36:16 10° S night (unlit)
29 Jul - 11:39:47 10° SW 11:44:20 64° NW 11:48:57 10° NNE daylight
29 Jul - 22:03:04 10° NNW 22:07:34 66° NE 22:12:00 10° SE night (unlit)
30 Jul - 10:15:26 10° S 10:19:14 26° SE 10:23:03 10° ENE daylight
30 Jul - 11:56:51 10° WSW 12:00:37 25° NW 12:04:25 10° N daylight
30 Jul - 20:39:40 10° N 20:42:15 15° NE 20:44:48 10° E visible
30 Jul - 22:19:26 10° WNW 22:23:45 44° SW 22:28:01 10° SSE night (unlit)
31 Jul - 10:30:51 10° SSW 10:35:23 70° SE 10:40:00 10° NE daylight
31 Jul - 12:16:46 10° NW 12:17:03 10° NW 12:17:19 10° NW daylight
31 Jul - 20:54:23 10° NNW 20:58:36 36° NE 21:02:45 10° ESE visible
31 Jul - 22:37:02 10° W 22:39:54 17° SW 22:42:46 10° SSW night (unlit)
01 Aug - 09:07:47 10° SSE 09:10:19 15° SE 09:12:50 10° E daylight
01 Aug - 10:47:16 10° WSW 10:51:36 42° NW 10:56:00 10° NNE daylight
01 Aug - 21:10:16 10° NW 21:14:50 82° SW 21:19:20 10° SE visible
02 Aug - 09:22:15 10° SSW 09:26:28 38° SE 09:30:43 10° ENE daylight
02 Aug - 11:04:54 10° W 11:07:56 17° NW 11:11:00 10° N daylight
02 Aug - 19:46:05 10° N 19:49:35 21° NE 19:53:03 10° E visible
02 Aug - 21:27:02 10° WNW 21:31:00 29° SW 21:34:55 10° S visible
